Regional Weather Roundup
Issued by NWS

Home | Current Version | Previous Version | Graphics & Text | Print | Product List | Glossary On
Versions: 1 2 3 4 5 6 7 8 9 10 11 12 13 14 15 16 17 18 19 20 21 22 23 24 25 26 27 28 29 30 31 32 33 34 35 36 37 38 39 40 41 42 43 44 45 46 47 48 49
000
ASUS43 KDMX 290707
RWRIA

WEATHER ROUNDUP FOR IOWA
NATIONAL WEATHER SERVICE DES MOINES IA
200 AM CDT WED JUL 29 2015

NOTE: "FAIR" INDICATES FEW OR NO CLOUDS BELOW 12,000 FEET WITH NO
SIGNIFICANT WEATHER AND/OR OBSTRUCTIONS TO VISIBILITY.

* - THESE STATIONS ARE NOT NWS STATIONS...THUS NOT UNDER NWS
QUALITY CONTROL.  THEY ALSO DO NOT REPORT WEATHER SUCH
AS PRECIPITATION OR FOG.

IAZ001>003-012>014-020>022-031>034-043>046-290800-
   NORTHWEST IOWA

CITY           SKY/WX    TMP DP  RH WIND       PRES   REMARKS
CARROLL *      CLEAR     66  64  94 W7        30.05S
CHEROKEE *       N/A     59  59 100 CALM      30.07R FOG
DENISON *      CLEAR     63  61  94 CALM      30.05S
LE MARS *      CLEAR     59  59 100 CALM      30.08R
ORANGE CITY *  CLEAR     61  57  88 CALM      30.07R
SHELDON *      CLEAR     59  55  88 CALM      30.05R
SIOUX CITY     CLEAR     63  59  87 W5        30.08R
SPENCER        CLEAR     60  56  86 CALM      30.06R
STORM LAKE *   CLEAR     63  59  88 W8        30.08R
$$

IAZ055>058-069>071-079>083-090>094-290800-
   SOUTHWEST IOWA

CITY           SKY/WX    TMP DP  RH WIND       PRES   REMARKS
ATLANTIC *     CLEAR     68  66  94 N5        30.04F
AUDUBON *      CLEAR     66  63  88 CALM      30.07S
CLARINDA *     MOCLDY    73  73 100 NW7       30.05R
COUNCIL BLFS * CLEAR     68  63  83 N6        30.06F
CRESTON *      CLOUDY    70  70 100 E8        30.03S FOG
HARLAN  *      CLEAR     64  64 100 CALM      30.09S
LAMONI         LGT RAIN  71  70  96 W5        30.03F
RED OAK *      CLOUDY    72  66  83 N9        30.04R
SHENANDOAH *   CLEAR     72  68  88 VRB6      30.04S
$$

IAZ047>049-059>061-072>074-084-290800-
   CENTRAL IOWA

CITY           SKY/WX    TMP DP  RH WIND       PRES   REMARKS
AMES           CLOUDY    71  32  23 W3        30.02R
ANKENY *       CLOUDY    72  72 100 NW6       30.00S
CHARITON *     RAIN      70  70 100 W3        30.02R
DES MOINES     CLOUDY    72  69  90 CALM      30.01R
GRINNELL*      DRIZZLE   70  68  94 NW8       30.00S
KNOXVILLE *    LGT RAIN  70  68  94 SW3       30.00R
MARSHALLTOWN   LGT RAIN  72  70  93 NW8       29.99F
PELLA *        LGT RAIN  70  70 100 W5        30.02R
PERRY *        CLOUDY    64  63  94 NW5       30.03S
$$

IAZ004>006-015-016-023>025-035-036-290800-
   NORTH CENTRAL IOWA

CITY           SKY/WX    TMP DP  RH WIND       PRES   REMARKS
ALGONA *       CLEAR     63  61  94 SW7       30.04R
CLARION *      CLEAR     66  63  88 W7        30.02R
ESTHERVILLE    CLEAR     59  57  93 W7        30.04R
FORT DODGE *   CLOUDY    64  63  94 CALM      30.04S
MASON CITY     CLOUDY    64  62  93 W9        30.02R
FOREST CITY *  CLEAR     63  61  94 W3        30.02R
IOWA FALLS *   CLOUDY    72  64  78 NW7       30.03R
$$

IAZ007>011-017>019-026>030-037>042-050>054-066-290800-
   NORTHEAST IOWA

CITY           SKY/WX    TMP DP  RH WIND       PRES   REMARKS
CEDAR RAPIDS   LGT RAIN  71  71 100 W9        29.96S
CHARLES CITY * CLOUDY    72  68  88 W9        30.00R
CLINTON *      CLOUDY    73  72  94 CALM      29.95R
DECORAH *      CLOUDY    73  72  94 VRB6      29.96S
DUBUQUE        CLOUDY    73  71  93 SW5       29.96R
MONTICELLO *   MOCLDY    72  72 100 SW3       29.96R
OELWEIN *      CLOUDY    73  72  94 W10       29.98R
WATERLOO       CLOUDY    73  70  90 W8        29.98R
$$

IAZ064-065-067-068-078-290800-
   EAST CENTRAL IOWA

CITY           SKY/WX    TMP DP  RH WIND       PRES   REMARKS
DAVENPORT      CLOUDY    75  73  93 CALM      29.94R
IOWA CITY      LGT RAIN  72  70  93 NW9       29.97R
MT. PLEASANT * LGT RAIN  73  70  88 W5        29.95F
MUSCATINE *    CLOUDY    75  73  94 NW9       29.96R
QUAD CITIES    CLOUDY    77  74  90 NW5       29.92R
$$

IAZ062-063-075>077-085>089-095>099-290800-
   SOUTHEAST IOWA

CITY           SKY/WX    TMP DP  RH WIND       PRES   REMARKS
BURLINGTON     CLOUDY    75  70  84 W7        29.95R
FAIRFIELD *    DRIZZLE   72  70  94 NW6       29.96F
FORT MADISON * CLEAR     73  72  94 W7        29.97S
KEOKUK *       CLEAR     73  72  94 NW6       29.95S
OSKALOOSA *    RAIN      70  68  94 CALM      29.99F
CENTERVILLE *  LGT RAIN  70  68  94 W7        30.01R
OTTUMWA        LGT RAIN  70  70 100 NW6       29.96F
WASHINGTON *   LGT RAIN  72  72 100 CALM      29.98S
$$

ABBREVIATIONS USED IN REMARKS
   TC - TEMPERATURES IN CELSIUS
  WCI - WIND CHILL INDEX
   HX - HEAT INDEX
  VSB - VISIBILITY
$$




USA.gov is the U.S. government's official web portal to all federal, state and local government web resources and services.